Sault Ste Marie, MI

6:34 AM EDT on May 26, 2018 (GMT -0400)
Sault Ste Marie Municipal / Sanderson Field

Weather History for KANJ - March, 2013

Change the Weather History Date:

Sunday, March 17, 2013

  Actual Average Record
Temperature  
Mean Temperature 13 °F 26 °F  
Max Temperature 22 °F 35 °F 65 °F (2012)
Min Temperature 3 °F 18 °F -16 °F (1916)
Degree Days  
Heating Degree Days 52 39  
Month to date heating degree days 716 705  
Since 1 July heating degree days 6448 6831  
Cooling Degree Days 0 0  
Month to date cooling degree days 0 0  
Year to date cooling degree days 0 0  
Moisture  
Dew Point 0 °F    
Average Humidity 56    
Maximum Humidity 68    
Minimum Humidity 43    
Precipitation  
Precipitation 0.01 in 0.07 in 0.38 in (1942)
Month to date precipitation 1.76 0.99  
Year to date precipitation 7.85 4.52  
Snow  
Snow 0.20 in 0.40 in 6.00 in (1917)
Month to date snowfall 11.3 8.4  
Since 1 July snowfall 132.1 108.6  
Snow Depth 27.00 in    
Sea Level Pressure  
Sea Level Pressure 30.22 in    
Wind  
Wind Speed 6 mph (North)    
Max Wind Speed 17 mph    
Max Gust Speed 24 mph    
Visibility 9 miles    
Events Snow    
T = Trace of Precipitation, MM = Missing Value Source: NWS Daily Summary

Daily Weather History Graph

Daily Weather History Graph

Search for Another Location

Airport or City:

Astronomy

Mar. 17, 2013 Rise Set
Actual Time 7:45 AM EDT 7:46 PM EDT
Civil Twilight 7:15 AM EDT 8:16 PM EDT
Nautical Twilight 6:40 AM EDT 8:51 PM EDT
Astronomical Twilight 6:04 AM EDT 9:27 PM EDT
Moon 10:38 AM EDT (3/17) 1:12 AM EDT (3/17)
Length of Visible Light 13h 00m
Length of Day
12h 00m
Waxing Crescent, 31% of the Moon is Illuminated
Mar 17
Waxing Crescent
Mar 19
First Quarter
Mar 27
Full
Apr 3
Last Quarter
Apr 10
New

Hourly Weather History & Observations

Time (EDT) Temp. Windchill Dew Point Humidity Pressure Visibility Wind Dir Wind Speed Gust Speed Precip Events Conditions
12:28 AM 18.0 °F 7.7 °F 12.9 °F 81% 29.96 in 1.0 mi NW 8.1 mph - 0.04 in Snow Light Snow
12:38 AM 18.0 °F 6.9 °F 12.9 °F 81% 29.97 in 1.2 mi NNW 9.2 mph - 0.04 in Snow Light Snow
1:02 AM 17.1 °F 3.0 °F 12.0 °F 81% 30.00 in 0.8 mi NNW 13.8 mph 24.2 mph 0.01 in Snow Light Snow
1:17 AM 16.0 °F 4.4 °F 10.0 °F 77% 30.02 in 1.5 mi North 9.2 mph 23.0 mph 0.01 in Snow Light Snow
1:27 AM 15.1 °F 2.5 °F 5.0 °F 64% 30.02 in 3.0 mi North 10.4 mph 24.2 mph 0.01 in Snow Light Snow
1:37 AM 14.0 °F 2.0 °F 3.9 °F 64% 30.02 in 9.0 mi North 9.2 mph - 0.01 in   Mostly Cloudy
1:55 AM 14.0 °F -0.2 °F 1.9 °F 59% 30.07 in 10.0 mi North 12.7 mph 18.4 mph 0.01 in   Mostly Cloudy
2:55 AM 12.0 °F 0.5 °F -0.0 °F 59% 30.12 in 10.0 mi North 8.1 mph - N/A   Scattered Clouds
3:55 AM 12.0 °F -1.3 °F -0.0 °F 59% 30.15 in 10.0 mi North 10.4 mph - 0.00 in   Overcast
4:55 AM 10.0 °F -2.9 °F -2.9 °F 56% 30.18 in 10.0 mi NNE 9.2 mph - 0.00 in   Overcast
5:55 AM 8.1 °F -7.0 °F -5.1 °F 55% 30.22 in 10.0 mi North 11.5 mph - N/A   Partly Cloudy
6:55 AM 6.1 °F -2.8 °F -5.1 °F 60% 30.25 in 10.0 mi North 4.6 mph - N/A   Clear
7:55 AM 3.9 °F -5.3 °F -6.0 °F 64% 30.28 in 10.0 mi North 4.6 mph - 0.00 in   Clear
8:55 AM 6.1 °F -5.6 °F -5.1 °F 60% 30.29 in 10.0 mi NNE 6.9 mph - 0.00 in   Clear
9:55 AM 10.0 °F 3.6 °F -5.1 °F 51% 30.31 in 10.0 mi North 3.5 mph - 0.00 in   Clear
10:55 AM 10.9 °F 4.7 °F -4.0 °F 51% 30.32 in 10.0 mi Variable 3.5 mph - 0.01 in   Clear
11:55 AM 12.0 °F 5.9 °F -2.9 °F 51% 30.34 in 10.0 mi SSW 3.5 mph - 0.00 in   Clear
12:55 PM 17.1 °F 11.7 °F -2.0 °F 43% 30.34 in 10.0 mi Variable 3.5 mph - 0.00 in   Clear
1:55 PM 17.1 °F 10.0 °F -2.0 °F 43% 30.35 in 10.0 mi West 4.6 mph - 0.00 in   Clear
2:55 PM 17.1 °F 5.0 °F 1.0 °F 50% 30.32 in 10.0 mi SW 10.4 mph - 0.00 in   Clear
3:55 PM 18.0 °F 11.1 °F -0.9 °F 44% 30.33 in 10.0 mi SW 4.6 mph - 0.00 in   Clear
4:55 PM 19.9 °F - 1.0 °F 44% 30.31 in 10.0 mi Calm Calm - N/A   Clear
5:55 PM 19.9 °F 13.4 °F -0.0 °F 42% 30.32 in 10.0 mi NW 4.6 mph - 0.00 in   Clear
6:55 PM 19.0 °F - -0.9 °F 42% 30.29 in 10.0 mi Calm Calm - 0.00 in   Clear
7:55 PM 18.0 °F 12.7 °F 1.9 °F 50% 30.29 in 10.0 mi East 3.5 mph - 0.00 in   Clear
8:55 PM 15.1 °F 7.7 °F -0.0 °F 51% 30.30 in 10.0 mi East 4.6 mph - N/A   Clear
9:55 PM 14.0 °F 5.1 °F -0.9 °F 52% 30.29 in 10.0 mi ESE 5.8 mph - N/A   Clear
10:55 PM 12.0 °F 0.5 °F 1.0 °F 61% 30.28 in 10.0 mi SE 8.1 mph - N/A   Clear
11:55 PM 10.0 °F 1.8 °F -0.0 °F 64% 30.27 in 10.0 mi East 4.6 mph - N/A   Clear